| time (UTC) | temp F | wind direction | speed MPH | gust MPH | rain 1hr in | rain 24hr in | rain mn in | humidity % | barometer mb |
| 20260901104524 | 63 | 232 | 2.0 | 5.0 | 0.00 | 0.00 | 0.00 | 95 | 1014.6 |
| 20260901103024 | 63 | 217 | 2.0 | 7.0 | 0.00 | 0.00 | 0.00 | 95 | 1014.6 |
| 20260901101520 | 63 | 232 | 3.0 | 5.0 | 0.00 | 0.00 | 0.00 | 95 | 1014.6 |
| 20260901100017 | 63 | 255 | 1.0 | 4.0 | 0.00 | 0.00 | 0.00 | 94 | 1014.4 |
| 20260901094510 | 64 | 232 | 2.0 | 6.0 | 0.00 | 0.00 | 0.00 | 94 | 1014.4 |
| 20260901093030 | 63 | 210 | 4.0 | 6.0 | 0.00 | 0.00 | 0.00 | 95 | 1014.4 |
| 20260901091510 | 62 | 249 | 2.0 | 4.0 | 0.00 | 0.00 | 0.00 | 93 | 1014.4 |
| 20260901090023 | 62 | 221 | 1.0 | 4.0 | 0.00 | 0.00 | 0.00 | 93 | 1014.4 |
| 20260901084526 | 62 | 243 | 1.0 | 4.0 | 0.00 | 0.00 | 0.00 | 93 | 1014.4 |
| 20260901083017 | 62 | 238 | 2.0 | 3.0 | 0.00 | 0.00 | 0.00 | 92 | 1014.4 |
| 20260901081522 | 63 | 205 | 1.0 | 3.0 | 0.00 | 0.00 | 0.00 | 92 | 1014.3 |
| 20260901080026 | 63 | 316 | 1.0 | 2.0 | 0.00 | 0.00 | 0.00 | 92 | 1014.3 |
| 20260901074529 | 63 | 265 | 0.0 | 3.0 | 0.00 | 0.00 | 0.00 | 92 | 1014.3 |
| 20260901073033 | 64 | 212 | 0.0 | 2.0 | 0.00 | 0.00 | 0.00 | 92 | 1014.3 |
| 20260901071518 | 64 | 217 | 1.0 | 3.0 | 0.00 | 0.00 | 0.00 | 92 | 1014.5 |
| 20260901070034 | 64 | 221 | 1.0 | 3.0 | 0.00 | 0.00 | 0.00 | 92 | 1014.8 |
| 20260901064527 | 65 | 298 | 1.0 | 2.0 | 0.00 | 0.00 | 0.00 | 92 | 1014.7 |
| 20260901063039 | 65 | 205 | 1.0 | 2.0 | 0.00 | 0.00 | 0.00 | 92 | 1014.9 |
| 20260901061520 | 65 | 209 | 1.0 | 4.0 | 0.00 | 0.00 | 0.00 | 92 | 1015.0 |
| 20260901060032 | 66 | 298 | 1.0 | 5.0 | 0.00 | 0.00 | 0.00 | 92 | 1014.7 |
| 20260901054534 | 66 | 227 | 1.0 | 4.0 | 0.00 | 0.00 | 0.00 | 91 | 1014.8 |
| 20260901053003 | 66 | 221 | 2.0 | 4.0 | 0.00 | 0.00 | 0.00 | 91 | 1014.7 |
| 20260901051524 | 66 | 230 | 2.0 | 4.0 | 0.00 | 0.00 | 0.00 | 90 | 1014.4 |
| 20260901050007 | 66 | 247 | 1.0 | 3.0 | 0.00 | 0.00 | 0.00 | 90 | 1014.2 |
| 20260901044509 | 67 | 236 | 2.0 | 3.0 | 0.00 | 0.00 | 0.00 | 88 | 1014.0 |
| 20260901043014 | 67 | 205 | 1.0 | 4.0 | 0.00 | 0.00 | 0.00 | 88 | 1013.8 |
| 20260901041508 | 67 | 221 | 0.0 | 3.0 | 0.00 | 0.00 | 0.00 | 87 | 1013.7 |
| 20260901040006 | 68 | 265 | 0.0 | 2.0 | 0.00 | 0.00 | 0.00 | 87 | 1013.9 |
| 20260901034520 | 68 | 146 | 1.0 | 3.0 | 0.00 | 0.00 | 0.00 | 87 | 1014.1 |
| 20260901033024 | 69 | 153 | 1.0 | 3.0 | 0.00 | 0.00 | 0.00 | 86 | 1014.1 |
| 20260901031529 | 69 | 298 | 0.0 | 3.0 | 0.00 | 0.00 | 0.00 | 85 | 1014.0 |
| 20260901030009 | 70 | 215 | 1.0 | 3.0 | 0.00 | 0.00 | 0.00 | 84 | 1014.1 |
| 20260901024514 | 70 | 234 | 2.0 | 5.0 | 0.00 | 0.00 | 0.00 | 84 | 1014.0 |
| 20260901023013 | 71 | 252 | 2.0 | 7.0 | 0.00 | 0.00 | 0.00 | 82 | 1014.0 |
| 20260901021531 | 72 | 248 | 2.0 | 7.0 | 0.00 | 0.00 | 0.00 | 81 | 1013.7 |
| 20260901020011 | 72 | 257 | 3.0 | 8.0 | 0.00 | 0.00 | 0.00 | 79 | 1013.6 |
| 20260901014518 | 73 | 250 | 2.0 | 4.0 | 0.00 | 0.00 | 0.00 | 79 | 1013.5 |
| 20260901013034 | 75 | 218 | 2.0 | 4.0 | 0.00 | 0.00 | 0.00 | 75 | 1013.4 |
| 20260901011525 | 77 | 245 | 2.0 | 4.0 | 0.00 | 0.00 | 0.00 | 74 | 1013.2 |
| 20260901010012 | 78 | 238 | 3.0 | 7.0 | 0.00 | 0.00 | 0.00 | 67 | 1013.3 |
| 20260901004507 | 80 | 245 | 3.0 | 8.0 | 0.00 | 0.00 | 0.00 | 65 | 1013.2 |
| 20260901003029 | 81 | 232 | 4.0 | 9.0 | 0.00 | 0.00 | 0.00 | 62 | 1013.0 |
| 20260901001532 | 83 | 254 | 4.0 | 9.0 | 0.00 | 0.00 | 0.00 | 60 | 1012.9 |
| 20260901000014 | 85 | 259 | 5.0 | 8.0 | 0.00 | 0.00 | 0.00 | 60 | 1013.0 |
| 20260831234519 | 85 | 228 | 5.0 | 10.0 | 0.00 | 0.00 | 0.00 | 57 | 1013.1 |
| 20260831233015 | 87 | 219 | 4.0 | 9.0 | 0.00 | 0.00 | 0.00 | 53 | 1012.9 |
| 20260831231513 | 88 | 262 | 5.0 | 11.0 | 0.00 | 0.00 | 0.00 | 52 | 1012.9 |
| 20260831230019 | 89 | 257 | 4.0 | 10.0 | 0.00 | 0.00 | 0.00 | 49 | 1012.9 |
| 20260831224525 | 90 | 259 | 4.0 | 10.0 | 0.00 | 0.00 | 0.00 | 48 | 1012.6 |
| 20260831223031 | 91 | 294 | 4.0 | 11.0 | 0.00 | 0.00 | 0.00 | 45 | 1012.8 |
| 20260831221525 | 91 | 261 | 4.0 | 11.0 | 0.00 | 0.00 | 0.00 | 45 | 1012.6 |
| 20260831220021 | 91 | 304 | 3.0 | 10.0 | 0.00 | 0.00 | 0.00 | 46 | 1012.3 |
| 20260831214518 | 91 | 261 | 4.0 | 11.0 | 0.00 | 0.00 | 0.00 | 45 | 1012.3 |
| 20260831213031 | 92 | 281 | 4.0 | 10.0 | 0.00 | 0.00 | 0.00 | 48 | 1012.2 |
| 20260831211515 | 91 | 291 | 5.0 | 10.0 | 0.00 | 0.00 | 0.00 | 43 | 1012.1 |
| 20260831210019 | 91 | 284 | 6.0 | 12.0 | 0.00 | 0.00 | 0.00 | 46 | 1012.1 |
| 20260831204533 | 91 | 227 | 5.0 | 10.0 | 0.00 | 0.00 | 0.00 | 49 | 1012.0 |
| 20260831203027 | 91 | 287 | 3.0 | 9.0 | 0.00 | 0.00 | 0.00 | 47 | 1012.1 |
| 20260831201517 | 91 | 237 | 3.0 | 12.0 | 0.00 | 0.00 | 0.00 | 48 | 1012.2 |
| 20260831200025 | 90 | 17 | 3.0 | 8.0 | 0.00 | 0.00 | 0.00 | 49 | 1012.1 |
| 20260831194536 | 90 | 23 | 2.0 | 8.0 | 0.00 | 0.00 | 0.00 | 51 | 1012.1 |
| 20260831193007 | 90 | 247 | 4.0 | 12.0 | 0.00 | 0.00 | 0.00 | 52 | 1012.1 |
| 20260831191504 | 89 | 298 | 2.0 | 11.0 | 0.00 | 0.00 | 0.00 | 51 | 1012.0 |
| 20260831190011 | 89 | 312 | 4.0 | 15.0 | 0.00 | 0.00 | 0.00 | 54 | 1012.0 |
| 20260831184504 | 88 | 309 | 3.0 | 9.0 | 0.00 | 0.00 | 0.00 | 58 | 1011.8 |
| 20260831183012 | 87 | 265 | 3.0 | 11.0 | 0.00 | 0.00 | 0.00 | 58 | 1011.8 |
| 20260831181520 | 85 | 93 | 4.0 | 11.0 | 0.00 | 0.00 | 0.00 | 66 | 1011.9 |
| 20260831180011 | 85 | 250 | 4.0 | 12.0 | 0.00 | 0.00 | 0.00 | 69 | 1012.0 |
| 20260831174509 | 84 | 249 | 4.0 | 9.0 | 0.00 | 0.00 | 0.00 | 72 | 1012.2 |
| 20260831173006 | 83 | 53 | 1.0 | 9.0 | 0.00 | 0.00 | 0.00 | 74 | 1012.1 |
| 20260831171504 | 83 | 309 | 4.0 | 10.0 | 0.00 | 0.00 | 0.00 | 74 | 1012.2 |
| 20260831170008 | 82 | 344 | 3.0 | 12.0 | 0.00 | 0.00 | 0.00 | 76 | 1012.3 |
| 20260831164517 | 82 | 238 | 5.0 | 10.0 | 0.00 | 0.00 | 0.00 | 77 | 1012.3 |
| 20260831163019 | 82 | 275 | 3.0 | 8.0 | 0.00 | 0.00 | 0.00 | 78 | 1012.0 |
| 20260831161511 | 81 | 281 | 5.0 | 10.0 | 0.00 | 0.00 | 0.00 | 80 | 1011.9 |
| 20260831160004 | 80 | 319 | 2.0 | 8.0 | 0.00 | 0.00 | 0.00 | 82 | 1011.9 |
| 20260831154519 | 80 | 309 | 4.0 | 12.0 | 0.00 | 0.00 | 0.00 | 82 | 1011.9 |
| 20260831153020 | 79 | 265 | 3.0 | 13.0 | 0.00 | 0.00 | 0.00 | 85 | 1011.8 |
| 20260831151527 | 78 | 302 | 4.0 | 9.0 | 0.00 | 0.00 | 0.00 | 86 | 1011.7 |
| 20260831150006 | 77 | 265 | 4.0 | 9.0 | 0.00 | 0.00 | 0.00 | 87 | 1011.6 |
| 20260831144514 | 76 | 228 | 4.0 | 10.0 | 0.00 | 0.00 | 0.00 | 89 | 1011.4 |
| 20260831143013 | 75 | 250 | 8.0 | 11.0 | 0.00 | 0.00 | 0.00 | 89 | 1011.2 |
| 20260831141510 | 74 | 232 | 4.0 | 8.0 | 0.00 | 0.00 | 0.00 | 90 | 1010.8 |
| 20260831140019 | 74 | 277 | 7.0 | 12.0 | 0.00 | 0.00 | 0.00 | 91 | 1010.8 |
| 20260831134519 | 73 | 235 | 4.0 | 9.0 | 0.00 | 0.00 | 0.00 | 93 | 1010.6 |
| 20260831133026 | 72 | 248 | 5.0 | 11.0 | 0.00 | 0.00 | 0.00 | 93 | 1010.5 |
| 20260831131517 | 72 | 227 | 5.0 | 10.0 | 0.00 | 0.00 | 0.00 | 94 | 1010.3 |
| 20260831130016 | 71 | 244 | 4.0 | 9.0 | 0.00 | 0.00 | 0.00 | 94 | 1010.0 |
| 20260831124512 | 71 | 259 | 3.0 | 8.0 | 0.00 | 0.00 | 0.00 | 94 | 1009.8 |
| 20260831123010 | 71 | 229 | 3.0 | 8.0 | 0.00 | 0.00 | 0.00 | 93 | 1009.8 |
| 20260831121530 | 71 | 242 | 4.0 | 9.0 | 0.00 | 0.00 | 0.00 | 93 | 1009.6 |
| 20260831120018 | 71 | 241 | 4.0 | 11.0 | 0.00 | 0.00 | 0.00 | 93 | 1009.5 |
| 20260831114524 | 71 | 221 | 2.0 | 7.0 | 0.00 | 0.00 | 0.00 | 93 | 1009.1 |
| 20260831113026 | 71 | 217 | 3.0 | 10.0 | 0.00 | 0.00 | 0.00 | 93 | 1008.9 |
| 20260831111521 | 72 | 225 | 4.0 | 9.0 | 0.00 | 0.00 | 0.00 | 93 | 1008.8 |
| 20260831110015 | 72 | 226 | 4.0 | 9.0 | 0.00 | 0.00 | 0.00 | 93 | 1008.5 |